Weather History for Newark Heath, OH

Change the Weather History Date:

Sunday, February 16, 2014

  Actual Average Record
Temperature  
Mean Temperature 16 °F -  
Max Temperature 27 °F 40 °F 68 °F (1954)
Min Temperature 6 °F 21 °F -6 °F (1985)
Degree Days  
Heating Degree Days 48    
Moisture  
Dew Point 12 °F    
Average Humidity 75    
Maximum Humidity 85    
Minimum Humidity 63    
Precipitation  
Precipitation 0.00 in - - ()
Sea Level Pressure  
Sea Level Pressure 30.11 in    
Wind  
Wind Speed 4 mph (WNW)    
Max Wind Speed 16 mph    
Max Gust Speed -    
Visibility 5 miles    
Events Snow    
Averages and records for this station are not official NWS values.
T = Trace of Precipitation, MM = Missing Value Source: NWS Daily Summary

Daily Weather History Graph

Daily Weather History Graph

Search for Another Location

Airport:

Trip Planner

Search our weather history database for the weather conditions in past years. The results will help you decide how hot, cold, wet, or windy it might be!

Date:

Astronomy

Feb. 16, 2014 Rise Set
Actual Time 7:21 AM EST 6:06 PM EST
Civil Twilight 6:53 AM EST 6:34 PM EST
Nautical Twilight 6:22 AM EST 7:06 PM EST
Astronomical Twilight 5:50 AM EST 7:37 PM EST
Moon 8:02 PM EST (2/16) 7:50 AM EST (2/16)
Length of Visible Light 11h 40m
Length of Day
10h 45m
Full, 97% of the Moon is Illuminated
Feb 16
Full
Feb 22
Last Quarter
Mar 1
New
Mar 8
First Quarter
Mar 16
Full

Hourly Weather History & Observations

Time (EST) Temp. Windchill Dew Point Humidity Pressure Visibility Wind Dir Wind Speed Gust Speed Precip Events Conditions
12:26 AM 6.1 °F - 1.0 °F 80% 30.06 in 3.0 mi Calm Calm - N/A   Haze
12:35 AM 6.1 °F - 1.9 °F 83% 30.06 in 2.0 mi Calm Calm - N/A   Scattered Clouds
12:46 AM 7.0 °F - 1.9 °F 80% 30.06 in 6.0 mi Calm Calm - N/A   Haze
12:54 AM 7.0 °F - 1.9 °F 80% 30.11 in 6.0 mi Calm Calm - N/A   Haze
1:02 AM 6.1 °F - 1.9 °F 83% 30.05 in 6.0 mi Calm Calm - N/A   Mostly Cloudy
1:13 AM 7.0 °F - 1.9 °F 80% 30.05 in 6.0 mi Calm Calm - N/A   Haze
1:54 AM 6.1 °F - 1.0 °F 80% 30.09 in 5.0 mi Calm Calm - N/A   Haze
2:54 AM 6.1 °F - 1.9 °F 83% 30.08 in 5.0 mi Calm Calm - N/A   Overcast
3:54 AM 8.1 °F - 3.0 °F 80% 30.05 in 5.0 mi Calm Calm - N/A   Haze
4:54 AM 9.0 °F - 3.9 °F 80% 30.03 in 5.0 mi Calm Calm - N/A   Haze
5:54 AM 12.9 °F 6.9 °F 8.1 °F 81% 30.04 in 5.0 mi East 3.5 mph - N/A   Haze
6:13 AM 14.0 °F 8.2 °F 8.1 °F 77% 29.98 in 6.0 mi ENE 3.5 mph - N/A   Haze
6:54 AM 15.1 °F - 10.0 °F 80% 30.00 in 6.0 mi Calm Calm - N/A   Haze
7:37 AM 15.1 °F 9.4 °F 10.0 °F 80% 29.96 in 5.0 mi WSW 3.5 mph - N/A   Haze
7:54 AM 17.1 °F - 10.9 °F 77% 30.01 in 4.0 mi Calm Calm - N/A   Haze
8:54 AM 21.0 °F 12.4 °F 16.0 °F 81% 30.00 in 4.0 mi South 6.9 mph - 0.00 in Snow Light Snow
9:32 AM 21.0 °F 11.4 °F 16.0 °F 81% 29.97 in 2.5 mi SSW 8.1 mph - 0.00 in Snow Light Snow
9:46 AM 21.0 °F 12.4 °F 17.1 °F 85% 29.97 in 1.8 mi SSW 6.9 mph - 0.00 in Snow Light Snow
9:54 AM 21.9 °F 13.4 °F 16.0 °F 78% 30.03 in 1.8 mi SW 6.9 mph - 0.00 in Snow Light Snow
10:16 AM 21.9 °F 15.7 °F 17.1 °F 82% 29.98 in 2.0 mi SSW 4.6 mph - 0.00 in Snow Light Snow
10:28 AM 21.9 °F 14.5 °F 17.1 °F 82% 29.99 in 1.2 mi SW 5.8 mph - 0.00 in Snow Light Snow
10:39 AM 21.9 °F 14.5 °F 17.1 °F 82% 29.99 in 3.0 mi SW 5.8 mph - 0.00 in Snow Light Snow
10:54 AM 23.0 °F 13.9 °F 17.1 °F 78% 30.04 in 4.0 mi WSW 8.1 mph - 0.00 in   Haze
11:52 AM 26.6 °F 17.5 °F 19.4 °F 74% 29.99 in 7.0 mi West 9.2 mph - N/A   Overcast
11:54 AM 26.1 °F 17.6 °F 19.0 °F 75% 30.04 in 7.0 mi West 8.1 mph - N/A   Overcast
12:11 PM 26.1 °F 17.6 °F 19.0 °F 75% 29.99 in 7.0 mi West 8.1 mph - N/A   Overcast
12:54 PM 27.0 °F 14.7 °F 19.0 °F 72% 30.04 in 7.0 mi West 16.1 mph - N/A   Overcast
1:54 PM 27.0 °F 16.1 °F 19.0 °F 72% 30.05 in 2.5 mi WNW 12.7 mph - N/A   Haze
2:04 PM 27.0 °F 18.7 °F 19.0 °F 72% 30.01 in 3.0 mi WNW 8.1 mph - N/A   Haze
2:54 PM 27.0 °F 18.7 °F 19.0 °F 72% 30.07 in 4.0 mi WNW 8.1 mph - N/A   Haze
3:26 PM 26.1 °F 15.6 °F 18.0 °F 71% 30.05 in 2.5 mi WNW 11.5 mph - 0.00 in Snow Light Snow
3:35 PM 27.0 °F 18.7 °F 18.0 °F 69% 30.05 in 4.0 mi WNW 8.1 mph - 0.00 in   Haze
3:54 PM 26.1 °F 14.5 °F 17.1 °F 69% 30.12 in 5.0 mi NW 13.8 mph - 0.00 in   Haze
4:20 PM 26.1 °F 14.5 °F 17.1 °F 69% 30.10 in 1.8 mi WNW 13.8 mph - 0.00 in Snow Light Snow
4:40 PM 26.1 °F 16.2 °F 17.1 °F 69% 30.11 in 3.0 mi NW 10.4 mph - 0.00 in Snow Light Snow
4:54 PM 26.1 °F 15.6 °F 16.0 °F 66% 30.16 in 6.0 mi NW 11.5 mph - 0.00 in   Haze
5:38 PM 24.1 °F 15.2 °F 16.0 °F 71% 30.14 in 2.5 mi WNW 8.1 mph - 0.00 in Snow Light Snow
5:45 PM 24.1 °F 14.4 °F 16.0 °F 71% 30.15 in 4.0 mi WNW 9.2 mph - 0.00 in   Haze
5:54 PM 24.1 °F 16.0 °F 16.0 °F 71% 30.20 in 2.5 mi WNW 6.9 mph - 0.00 in Snow Light Snow
6:10 PM 24.1 °F 16.0 °F 17.1 °F 75% 30.17 in 1.8 mi NW 6.9 mph - 0.00 in Snow Light Snow
6:22 PM 24.1 °F 15.2 °F 17.1 °F 75% 30.19 in 2.5 mi NW 8.1 mph - 0.00 in Snow Light Snow
6:41 PM 24.1 °F 15.2 °F 15.1 °F 69% 30.20 in 3.0 mi NW 8.1 mph - 0.00 in Snow Light Snow
6:54 PM 23.0 °F 11.7 °F 15.1 °F 72% 30.26 in 3.0 mi NNW 11.5 mph - 0.00 in Snow Light Snow
7:54 PM 21.9 °F 10.4 °F 12.9 °F 68% 30.30 in 9.0 mi NW 11.5 mph - 0.00 in   Overcast
8:18 PM 21.0 °F 12.4 °F 12.0 °F 68% 30.26 in 10.0 mi NW 6.9 mph - N/A   Overcast
8:54 PM 21.9 °F 14.5 °F 12.0 °F 66% 30.31 in 10.0 mi North 5.8 mph - N/A   Overcast
9:54 PM 21.9 °F 14.5 °F 10.9 °F 63% 30.34 in 10.0 mi North 5.8 mph - N/A   Overcast
10:15 PM 19.9 °F 13.4 °F 10.0 °F 65% 30.30 in 10.0 mi North 4.6 mph - N/A   Scattered Clouds
10:54 PM 18.0 °F - 10.0 °F 71% 30.35 in 10.0 mi Calm Calm - N/A   Clear
11:14 PM 18.0 °F - 10.0 °F 71% 30.31 in 10.0 mi Calm Calm - N/A   Mostly Cloudy
11:45 PM 16.0 °F - 9.0 °F 74% 30.31 in 8.0 mi Calm Calm - N/A   Scattered Clouds
11:54 PM 12.0 °F - 7.0 °F 80% 30.36 in 7.0 mi Calm Calm - N/A   Partly Cloudy